Flag for United Kingdom Weather past 2 weeks in Aberdeen, Scotland, United Kingdom

Now
64 °F

Scattered showers. Scattered clouds.


Feels Like: 64 °F
Forecast: 50 / 55 °F
Wind: 10 mph from North

Location: Aberdeen / Dyce

Current Time: Jul 7, 2015 at 2:56:43 PM

Latest Report: Jul 7, 2015 at 2:20 PM


Visibility: N/A

Pressure: 29.45 "Hg

Humidity: 88%

Dew point: 61 °F

Location of AberdeenLocation

Historic Weather in Aberdeen — Graph

°F

Aberdeen temperature yesterday

Maximum temperature yesterday: 64 °F (at 12:20 PM)
Minimum temperature yesterday: 52 °F (at 2:20 AM)
Average temperature yesterday: 59 °F

Past Weeks' High & Low Weather Summary

 TemperatureHumidityPressure
High79 °F (Jul 2, 12:50 PM)100% (Jun 24, 10:20 PM)30.30 "Hg (Jun 24, 10:20 PM)
Low48 °F (Jun 22, 11:50 PM)46% (Jun 27, 3:50 PM)29.45 "Hg (Jul 7, 12:50 PM)
Average58 °F83%29.96 "Hg
* Reported Jun 22 1:20 PM — Jul 7 1:50 PM, Aberdeen, Weather by CustomWeather, © 2015

Note: Actual official high and low records may vary slightly from our data, if they occured in-between our weather recording intervals... More about our weather records

Advertising

Aberdeen weather history for previous 24 hours

 ConditionsComfort  
Time TempWeatherWind HumidityBarometerVisibility
1:50 PM
Tue, Jul 7
68 °FScattered showers. Partly sunny.9 mph64%29.45 "HgN/A
1:20 PM72 °FPartly sunny.10 mph61%29.45 "HgN/A
12:50 PM70 °FScattered showers. Scattered clouds.9 mph64%29.45 "HgN/A
12:20 PM68 °FScattered showers. Scattered clouds.12 mph69%29.47 "HgN/A
11:50 AM68 °FScattered showers. Scattered clouds.12 mph69%29.47 "HgN/A
11:20 AM66 °FScattered clouds.10 mph78%29.47 "HgN/A
10:50 AM66 °FScattered clouds.12 mph78%29.50 "HgN/A
10:20 AM64 °FPartly sunny.13 mph78%29.50 "HgN/A
9:50 AM63 °FScattered clouds.8 mph88%29.50 "HgN/A
9:20 AM61 °FBroken clouds.9 mph88%29.50 "HgN/A
8:50 AM61 °FPartly sunny.6 mph88%29.53 "HgN/A
8:20 AM61 °FPartly sunny.6 mph88%29.53 "HgN/A
7:50 AM59 °FPartly sunny.5 mph94%29.53 "HgN/A
7:20 AM57 °FPartly sunny.2 mph100%29.53 "HgN/A
6:50 AM57 °FFog.7 mph94%29.56 "Hg3 mi
6:20 AM55 °FFog.6 mph100%29.56 "Hg3 mi
5:50 AM55 °FFog.5 mph100%29.56 "Hg3 mi
5:20 AM55 °FFog.9 mph100%29.59 "Hg2 mi
4:50 AM55 °FFog.8 mph100%29.59 "Hg1 mi
4:20 AM55 °FDrizzle. Low clouds.8 mph100%29.62 "Hg1 mi
3:50 AM55 °FFog.9 mph100%29.62 "Hg2 mi
3:20 AM55 °FFog.9 mph94%29.65 "Hg1 mi
2:50 AM55 °FFog.10 mph94%29.65 "Hg2 mi
2:20 AM55 °FLow clouds.12 mph94%29.68 "Hg5 mi
1:50 AM55 °FLight rain. Passing clouds.12 mph94%29.71 "HgN/A
1:20 AM55 °FLight rain. Low clouds.12 mph94%29.71 "Hg5 mi
12:50 AM55 °FHeavy rain. Passing clouds.10 mph94%29.74 "Hg2 mi
12:20 AM55 °FLight rain. Mostly cloudy.10 mph94%29.74 "Hg3 mi
11:50 PM
Mon, Jul 6
55 °FPassing clouds.8 mph88%29.74 "HgN/A
11:20 PM55 °FPassing clouds.7 mph88%29.77 "HgN/A
10:50 PM57 °FSunny.9 mph77%29.77 "Hg10 mi
10:20 PM57 °FSunny.10 mph77%29.77 "Hg10 mi
9:50 PM59 °FSunny.8 mph68%29.80 "Hg10 mi
9:20 PM59 °FSunny.9 mph72%29.80 "Hg10 mi
8:50 PM59 °FSunny.9 mph77%29.80 "Hg10 mi
8:20 PM61 °FSunny.9 mph72%29.80 "Hg10 mi
7:50 PM63 °FSunny.7 mph68%29.80 "Hg10 mi
7:20 PM63 °FPassing clouds.8 mph68%29.80 "HgN/A
6:50 PM64 °FSunny.10 mph64%29.83 "Hg10 mi
6:20 PM64 °FSunny.12 mph68%29.83 "Hg10 mi
5:50 PM64 °FSunny.14 mph68%29.83 "Hg10 mi
5:20 PM64 °FPassing clouds.14 mph68%29.83 "HgN/A
4:50 PM63 °FPassing clouds.13 mph73%29.83 "HgN/A
4:20 PM63 °FPassing clouds.8 mph73%29.86 "HgN/A
3:50 PM63 °FPassing clouds.9 mph73%29.86 "HgN/A
3:20 PM63 °FPartly sunny.10 mph73%29.86 "HgN/A
2:50 PM63 °FScattered clouds.10 mph73%29.89 "HgN/A
2:20 PM63 °FScattered clouds.12 mph73%29.89 "HgN/A
Weather by CustomWeather, © 2015

See weather overviewHow to use our weather pages